| time (UTC) | temp F | wind direction | speed MPH | gust MPH | rain 1hr in | rain 24hr in | rain mn in | humidity % | barometer mb |
| 20260902175711 | 92 | 269 | 6.0 | 11.0 | 0.00 | 0.00 | 0.00 | 63 | 1016.4 |
| 20260902174710 | 91 | 300 | 5.0 | 9.0 | 0.00 | 0.00 | 0.00 | 63 | 1016.4 |
| 20260902173709 | 91 | 263 | 3.0 | 9.0 | 0.00 | 0.00 | 0.00 | 63 | 1016.4 |
| 20260902172709 | 90 | 258 | 4.0 | 9.0 | 0.00 | 0.00 | 0.00 | 65 | 1016.7 |
| 20260902171708 | 90 | 264 | 5.0 | 9.0 | 0.00 | 0.00 | 0.00 | 66 | 1017.1 |
| 20260902170707 | 89 | 273 | 6.0 | 8.0 | 0.00 | 0.00 | 0.00 | 67 | 1017.0 |
| 20260902165706 | 89 | 278 | 4.0 | 7.0 | 0.00 | 0.00 | 0.00 | 69 | 1017.4 |
| 20260902164706 | 89 | 275 | 4.0 | 7.0 | 0.00 | 0.00 | 0.00 | 67 | 1017.4 |
| 20260902163705 | 89 | 304 | 3.0 | 7.0 | 0.00 | 0.00 | 0.00 | 69 | 1017.4 |
| 20260902162704 | 88 | 275 | 3.0 | 6.0 | 0.00 | 0.00 | 0.00 | 68 | 1017.4 |
| 20260902161601 | 88 | 279 | 4.0 | 6.0 | 0.00 | 0.00 | 0.00 | 68 | 1017.4 |
| 20260902160600 | 88 | 261 | 2.0 | 4.0 | 0.00 | 0.00 | 0.00 | 69 | 1017.4 |
| 20260902155559 | 88 | 238 | 1.0 | 6.0 | 0.00 | 0.00 | 0.00 | 68 | 1017.4 |
| 20260902154525 | 88 | 297 | 2.0 | 8.0 | 0.00 | 0.00 | 0.00 | 68 | 1017.4 |
| 20260902153525 | 87 | 310 | 3.0 | 8.0 | 0.00 | 0.00 | 0.00 | 71 | 1017.4 |
| 20260902152524 | 87 | 276 | 5.0 | 7.0 | 0.00 | 0.00 | 0.00 | 71 | 1017.3 |
| 20260902151523 | 86 | 315 | 4.0 | 8.0 | 0.00 | 0.00 | 0.00 | 72 | 1017.3 |
| 20260902150522 | 86 | 303 | 4.0 | 8.0 | 0.00 | 0.00 | 0.00 | 74 | 1017.3 |
| 20260902145521 | 86 | 281 | 4.0 | 8.0 | 0.00 | 0.00 | 0.00 | 72 | 1017.3 |
| 20260902144520 | 85 | 286 | 2.0 | 7.0 | 0.00 | 0.00 | 0.00 | 76 | 1017.3 |
| 20260902143519 | 84 | 276 | 5.0 | 7.0 | 0.00 | 0.00 | 0.00 | 77 | 1017.3 |
| 20260902142518 | 84 | 297 | 5.0 | 10.0 | 0.00 | 0.00 | 0.00 | 77 | 1016.9 |
| 20260902141517 | 83 | 283 | 5.0 | 11.0 | 0.00 | 0.00 | 0.00 | 80 | 1016.8 |
| 20260902140414 | 82 | 275 | 7.0 | 10.0 | 0.00 | 0.00 | 0.00 | 78 | 1016.8 |
| 20260902135413 | 82 | 271 | 5.0 | 10.0 | 0.00 | 0.00 | 0.00 | 81 | 1016.8 |
| 20260902134412 | 81 | 296 | 5.0 | 10.0 | 0.00 | 0.00 | 0.00 | 81 | 1016.8 |
| 20260902133411 | 80 | 278 | 5.0 | 9.0 | 0.00 | 0.00 | 0.00 | 82 | 1016.8 |
| 20260902132411 | 80 | 273 | 5.0 | 8.0 | 0.00 | 0.00 | 0.00 | 84 | 1016.5 |
| 20260902131410 | 80 | 270 | 4.0 | 7.0 | 0.00 | 0.00 | 0.00 | 84 | 1016.8 |
| 20260902130409 | 79 | 278 | 5.0 | 7.0 | 0.00 | 0.00 | 0.00 | 85 | 1016.8 |
| 20260902125409 | 79 | 277 | 4.0 | 7.0 | 0.00 | 0.00 | 0.00 | 85 | 1016.8 |
| 20260902124337 | 78 | 278 | 3.0 | 5.0 | 0.00 | 0.00 | 0.00 | 86 | 1016.8 |
| 20260902123336 | 77 | 279 | 2.0 | 5.0 | 0.00 | 0.00 | 0.00 | 87 | 1016.8 |
| 20260902122305 | 77 | 287 | 3.0 | 5.0 | 0.00 | 0.00 | 0.00 | 87 | 1016.8 |
| 20260902121302 | 77 | 275 | 4.0 | 5.0 | 0.00 | 0.00 | 0.00 | 88 | 1016.8 |
| 20260902120302 | 76 | 301 | 2.0 | 5.0 | 0.00 | 0.00 | 0.00 | 88 | 1016.8 |
| 20260902115228 | 76 | 313 | 2.0 | 6.0 | 0.00 | 0.00 | 0.00 | 87 | 1016.8 |
| 20260902114227 | 76 | 305 | 3.0 | 5.0 | 0.00 | 0.00 | 0.00 | 87 | 1016.5 |
| 20260902113227 | 76 | 304 | 3.0 | 5.0 | 0.00 | 0.00 | 0.00 | 88 | 1016.5 |
| 20260902112155 | 76 | 299 | 3.0 | 5.0 | 0.00 | 0.00 | 0.00 | 88 | 1016.5 |
| 20260902111154 | 75 | 285 | 3.0 | 7.0 | 0.00 | 0.00 | 0.00 | 88 | 1016.2 |
| 20260902110152 | 75 | 299 | 4.0 | 7.0 | 0.00 | 0.00 | 0.00 | 89 | 1016.2 |
| 20260902105151 | 75 | 293 | 3.0 | 8.0 | 0.00 | 0.00 | 0.00 | 89 | 1016.2 |
| 20260902104151 | 75 | 289 | 3.0 | 7.0 | 0.00 | 0.00 | 0.00 | 90 | 1016.2 |
| 20260902103150 | 75 | 290 | 2.0 | 5.0 | 0.00 | 0.00 | 0.00 | 90 | 1016.2 |
| 20260902102150 | 74 | 297 | 3.0 | 5.0 | 0.00 | 0.00 | 0.00 | 90 | 1016.1 |
| 20260902101149 | 74 | 294 | 2.0 | 6.0 | 0.00 | 0.00 | 0.00 | 90 | 1015.8 |
| 20260902100147 | 74 | 296 | 2.0 | 6.0 | 0.00 | 0.00 | 0.00 | 91 | 1016.2 |
| 20260902095147 | 73 | 280 | 3.0 | 5.0 | 0.00 | 0.00 | 0.00 | 92 | 1015.8 |
| 20260902094146 | 73 | 287 | 1.0 | 6.0 | 0.00 | 0.00 | 0.00 | 92 | 1015.8 |
| 20260902093145 | 73 | 275 | 3.0 | 5.0 | 0.00 | 0.00 | 0.00 | 93 | 1015.8 |
| 20260902092144 | 73 | 272 | 2.0 | 4.0 | 0.00 | 0.00 | 0.00 | 93 | 1016.2 |
| 20260902091010 | 73 | 269 | 2.0 | 3.0 | 0.00 | 0.00 | 0.00 | 93 | 1016.2 |
| 20260902090009 | 73 | 270 | 2.0 | 3.0 | 0.00 | 0.00 | 0.00 | 93 | 1016.2 |
| 20260902085008 | 73 | 272 | 1.0 | 2.0 | 0.00 | 0.00 | 0.00 | 93 | 1016.2 |
| 20260902084007 | 73 | 273 | 1.0 | 2.0 | 0.00 | 0.00 | 0.00 | 92 | 1016.2 |
| 20260902082935 | 73 | 254 | 1.0 | 2.0 | 0.00 | 0.00 | 0.00 | 92 | 1016.2 |
| 20260902081934 | 73 | 266 | 1.0 | 2.0 | 0.00 | 0.00 | 0.00 | 92 | 1016.3 |
| 20260902080932 | 74 | 264 | 1.0 | 2.0 | 0.00 | 0.00 | 0.00 | 92 | 1015.9 |
| 20260902075931 | 74 | 261 | 1.0 | 3.0 | 0.00 | 0.00 | 0.00 | 92 | 1016.0 |
| 20260902074930 | 74 | 228 | 2.0 | 4.0 | 0.00 | 0.00 | 0.00 | 93 | 1015.9 |
| 20260902073929 | 74 | 260 | 1.0 | 3.0 | 0.00 | 0.00 | 0.00 | 92 | 1015.9 |
| 20260902072928 | 74 | 254 | 2.0 | 3.0 | 0.00 | 0.00 | 0.00 | 92 | 1015.9 |
| 20260902071927 | 74 | 248 | 1.0 | 2.0 | 0.00 | 0.00 | 0.00 | 92 | 1015.9 |
| 20260902070927 | 74 | 230 | 1.0 | 3.0 | 0.00 | 0.00 | 0.00 | 92 | 1015.9 |
| 20260902065926 | 75 | 253 | 2.0 | 3.0 | 0.00 | 0.00 | 0.00 | 93 | 1015.9 |
| 20260902064853 | 74 | 247 | 1.0 | 3.0 | 0.00 | 0.00 | 0.00 | 94 | 1015.9 |
| 20260902063852 | 74 | 250 | 1.0 | 4.0 | 0.00 | 0.00 | 0.00 | 95 | 1016.3 |
| 20260902062851 | 73 | 215 | 1.0 | 4.0 | 0.00 | 0.00 | 0.00 | 95 | 1016.2 |
| 20260902061748 | 72 | 210 | 2.0 | 2.0 | 0.00 | 0.00 | 0.00 | 96 | 1016.2 |
| 20260902060747 | 72 | 248 | 0.0 | 2.0 | 0.00 | 0.00 | 0.00 | 94 | 1016.1 |
| 20260902055746 | 72 | 161 | 0.0 | 2.0 | 0.00 | 0.00 | 0.00 | 94 | 1016.5 |
| 20260902054745 | 72 | 161 | 2.0 | 2.0 | 0.00 | 0.00 | 0.00 | 94 | 1016.1 |
| 20260902053714 | 73 | 161 | 0.0 | 2.0 | 0.00 | 0.00 | 0.00 | 95 | 1016.1 |
| 20260902052713 | 73 | 161 | 1.0 | 2.0 | 0.00 | 0.00 | 0.00 | 95 | 1016.2 |
| 20260902051712 | 73 | 161 | 0.0 | 2.0 | 0.00 | 0.00 | 0.00 | 95 | 1016.1 |
| 20260902050711 | 73 | 161 | 2.0 | 2.0 | 0.00 | 0.00 | 0.00 | 94 | 1016.1 |
| 20260902045710 | 72 | 161 | 1.0 | 2.0 | 0.00 | 0.00 | 0.00 | 94 | 1016.1 |
| 20260902044709 | 72 | 161 | 1.0 | 2.0 | 0.00 | 0.00 | 0.00 | 93 | 1016.2 |
| 20260902043637 | 73 | 141 | 0.0 | 2.0 | 0.00 | 0.00 | 0.00 | 93 | 1016.1 |
| 20260902042635 | 73 | 141 | 0.0 | 2.0 | 0.00 | 0.00 | 0.00 | 92 | 1016.2 |
| 20260902041603 | 74 | 141 | 0.0 | 2.0 | 0.00 | 0.00 | 0.00 | 93 | 1015.8 |
| 20260902040602 | 74 | 160 | 1.0 | 2.0 | 0.00 | 0.00 | 0.00 | 93 | 1015.5 |
| 20260902035602 | 74 | 176 | 1.0 | 2.0 | 0.00 | 0.00 | 0.00 | 92 | 1015.5 |
| 20260902034601 | 74 | 186 | 1.0 | 2.0 | 0.00 | 0.00 | 0.00 | 91 | 1015.5 |
| 20260902033600 | 74 | 201 | 2.0 | 2.0 | 0.00 | 0.00 | 0.00 | 89 | 1015.5 |
| 20260902032559 | 74 | 210 | 1.0 | 2.0 | 0.00 | 0.00 | 0.00 | 89 | 1015.6 |
| 20260902031558 | 75 | 190 | 1.0 | 2.0 | 0.00 | 0.00 | 0.00 | 87 | 1015.9 |
| 20260902030527 | 75 | 215 | 1.0 | 2.0 | 0.00 | 0.00 | 0.00 | 88 | 1015.9 |
| 20260902025526 | 74 | 284 | 2.0 | 4.0 | 0.00 | 0.00 | 0.00 | 89 | 1015.9 |
| 20260902024454 | 74 | 29 | 1.0 | 4.0 | 0.00 | 0.00 | 0.00 | 91 | 1015.9 |
| 20260902023422 | 74 | 329 | 1.0 | 3.0 | 0.00 | 0.00 | 0.00 | 94 | 1016.2 |
| 20260902022421 | 73 | 310 | 2.0 | 3.0 | 0.00 | 0.00 | 0.00 | 95 | 1016.1 |
| 20260902021420 | 72 | 299 | 1.0 | 3.0 | 0.00 | 0.00 | 0.00 | 92 | 1016.1 |
| 20260902020419 | 72 | 312 | 1.0 | 2.0 | 0.00 | 0.00 | 0.00 | 91 | 1015.7 |
| 20260902015418 | 73 | 225 | 1.0 | 2.0 | 0.00 | 0.00 | 0.00 | 90 | 1015.7 |
| 20260902014416 | 73 | 225 | 0.0 | 2.0 | 0.00 | 0.00 | 0.00 | 89 | 1015.7 |
| 20260902013416 | 73 | 225 | 1.0 | 2.0 | 0.00 | 0.00 | 0.00 | 91 | 1015.8 |
| 20260902012415 | 74 | 210 | 0.0 | 1.0 | 0.00 | 0.00 | 0.00 | 88 | 1015.8 |
| 20260902011414 | 75 | 210 | 0.0 | 0.0 | 0.00 | 0.00 | 0.00 | 88 | 1015.4 |
| 20260902010342 | 75 | 210 | 0.0 | 0.0 | 0.00 | 0.00 | 0.00 | 89 | 1015.1 |
| 20260902005341 | 75 | 210 | 0.0 | 0.0 | 0.00 | 0.00 | 0.00 | 86 | 1015.1 |
| 20260902004341 | 76 | 210 | 0.0 | 0.0 | 0.00 | 0.00 | 0.00 | 85 | 1014.8 |
| 20260902003340 | 77 | 210 | 0.0 | 2.0 | 0.00 | 0.00 | 0.00 | 84 | 1014.8 |
| 20260902002339 | 77 | 210 | 1.0 | 2.0 | 0.00 | 0.00 | 0.00 | 83 | 1014.8 |
| 20260902001338 | 78 | 210 | 0.0 | 1.0 | 0.00 | 0.00 | 0.00 | 81 | 1015.1 |
| 20260902000337 | 78 | 309 | 1.0 | 2.0 | 0.00 | 0.00 | 0.00 | 81 | 1015.5 |
| 20260901235335 | 79 | 287 | 1.0 | 2.0 | 0.00 | 0.00 | 0.00 | 78 | 1015.1 |
| 20260901234334 | 79 | 300 | 0.0 | 4.0 | 0.00 | 0.00 | 0.00 | 77 | 1015.2 |
| 20260901233332 | 80 | 285 | 2.0 | 7.0 | 0.00 | 0.00 | 0.00 | 75 | 1015.2 |
| 20260901232332 | 80 | 309 | 3.0 | 9.0 | 0.00 | 0.00 | 0.00 | 75 | 1015.5 |
| 20260901231331 | 81 | 305 | 4.0 | 12.0 | 0.00 | 0.00 | 0.00 | 74 | 1015.5 |
| 20260901230330 | 81 | 298 | 6.0 | 15.0 | 0.00 | 0.00 | 0.00 | 73 | 1015.5 |
| 20260901225258 | 81 | 298 | 10.0 | 14.0 | 0.00 | 0.00 | 0.00 | 74 | 1015.6 |
| 20260901224257 | 81 | 304 | 6.0 | 14.0 | 0.00 | 0.00 | 0.00 | 75 | 1015.9 |
| 20260901223256 | 82 | 312 | 8.0 | 14.0 | 0.00 | 0.00 | 0.00 | 77 | 1015.9 |
| 20260901222224 | 82 | 293 | 9.0 | 14.0 | 0.00 | 0.00 | 0.00 | 77 | 1016.3 |
| 20260901221152 | 82 | 290 | 5.0 | 11.0 | 0.00 | 0.00 | 0.00 | 78 | 1016.3 |
| 20260901220151 | 83 | 299 | 7.0 | 11.0 | 0.00 | 0.00 | 0.00 | 76 | 1015.9 |
| 20260901215151 | 83 | 296 | 6.0 | 11.0 | 0.00 | 0.00 | 0.00 | 74 | 1016.3 |
| 20260901214150 | 83 | 294 | 5.0 | 12.0 | 0.00 | 0.00 | 0.00 | 75 | 1016.3 |
| 20260901213150 | 83 | 282 | 7.0 | 13.0 | 0.00 | 0.00 | 0.00 | 73 | 1015.9 |
| 20260901212149 | 83 | 281 | 8.0 | 15.0 | 0.00 | 0.00 | 0.00 | 73 | 1015.9 |
| 20260901211148 | 84 | 285 | 7.0 | 15.0 | 0.00 | 0.00 | 0.00 | 72 | 1016.3 |
| 20260901210147 | 84 | 310 | 12.0 | 21.0 | 0.00 | 0.00 | 0.00 | 72 | 1016.3 |
| 20260901205146 | 85 | 295 | 7.0 | 21.0 | 0.00 | 0.00 | 0.00 | 71 | 1016.0 |
| 20260901204145 | 86 | 292 | 11.0 | 20.0 | 0.00 | 0.00 | 0.00 | 69 | 1016.0 |
| 20260901203144 | 87 | 287 | 11.0 | 21.0 | 0.00 | 0.00 | 0.00 | 68 | 1016.0 |
| 20260901202111 | 87 | 279 | 10.0 | 21.0 | 0.00 | 0.00 | 0.00 | 70 | 1016.0 |
| 20260901201111 | 87 | 280 | 11.0 | 18.0 | 0.00 | 0.00 | 0.00 | 70 | 1016.1 |
| 20260901200110 | 88 | 277 | 12.0 | 18.0 | 0.00 | 0.00 | 0.00 | 70 | 1016.1 |
| 20260901195109 | 86 | 296 | 9.0 | 18.0 | 0.00 | 0.00 | 0.00 | 72 | 1016.0 |
| 20260901194109 | 87 | 279 | 11.0 | 19.0 | 0.00 | 0.00 | 0.00 | 69 | 1016.0 |
| 20260901193037 | 86 | 291 | 11.0 | 17.0 | 0.00 | 0.00 | 0.00 | 72 | 1016.0 |
| 20260901192036 | 85 | 284 | 8.0 | 17.0 | 0.00 | 0.00 | 0.00 | 72 | 1016.0 |
| 20260901191035 | 86 | 283 | 9.0 | 14.0 | 0.00 | 0.00 | 0.00 | 72 | 1016.0 |
| 20260901190034 | 84 | 273 | 7.0 | 14.0 | 0.00 | 0.00 | 0.00 | 75 | 1015.9 |
| 20260901185033 | 85 | 270 | 7.0 | 13.0 | 0.00 | 0.00 | 0.00 | 74 | 1016.0 |
| 20260901184001 | 86 | 265 | 6.0 | 11.0 | 0.00 | 0.00 | 0.00 | 72 | 1016.0 |
| 20260901183001 | 85 | 233 | 4.0 | 14.0 | 0.00 | 0.00 | 0.00 | 72 | 1015.9 |
| 20260901182000 | 85 | 275 | 8.0 | 14.0 | 0.00 | 0.00 | 0.00 | 74 | 1015.9 |
| 20260901181000 | 84 | 235 | 5.0 | 11.0 | 0.00 | 0.00 | 0.00 | 74 | 1015.9 |
| 20260901175959 | 84 | 272 | 7.0 | 14.0 | 0.00 | 0.00 | 0.00 | 75 | 1015.9 |